Location: Stockholm
(59.3293°N, 18.0686°E)
Time: 18:37:55
(UTC+02:00)

Envisat - Visible Passes

Search period start: 23 October 2018 00:00
Search period end: 01 November 2018 23:00
Orbit: 764 x 766 km, 98.2° (Epoch: 23 October)

Date Brightness Start Highest point End Pass type
(mag) Time Alt. Az. Time Alt. Az. Time Alt. Az.
23 Oct 3.3 18:29:34 10° SE 18:34:25 46° ENE 18:39:17 10° N visible
23 Oct 4.2 20:08:44 10° SSW 20:13:33 42° W 20:18:24 10° NNW visible
24 Oct 3.9 17:53:36 10° ESE 17:57:56 29° NE 18:02:18 10° N visible
24 Oct 3.2 19:31:33 10° S 19:36:38 74° WSW 19:41:45 10° NNW visible
24 Oct 5.6 21:13:18 10° SW 21:16:35 17° W 21:19:52 10° NW visible
25 Oct 3.0 18:54:51 10° SSE 18:59:53 66° ENE 19:04:57 10° NNW visible
25 Oct 4.9 20:34:56 10° SSW 20:39:21 29° W 20:43:47 10° NNW visible
26 Oct 6.2 06:55:49 10° NE 06:57:52 12° ENE 06:59:55 10° ESE visible
26 Oct 3.4 18:18:34 10° SE 18:23:18 40° ENE 18:28:02 10° N visible
26 Oct 3.9 19:57:21 10° S 20:02:18 50° W 20:07:16 10° NNW visible
26 Oct 6.0 21:41:04 10° W 21:42:36 11° WNW 21:44:09 10° WNW visible
27 Oct 3.0 19:20:20 10° SSE 19:25:26 86° WSW 19:30:34 10° NNW visible
27 Oct 5.4 21:01:32 10° SW 21:05:13 20° W 21:08:56 10° NW visible
28 Oct 3.1 17:43:45 10° SE 17:48:43 57° ENE 17:53:44 10° NNW visible
28 Oct 4.6 19:23:26 10° SSW 19:28:03 34° W 19:32:41 10° NNW visible
29 Oct 6.5 05:45:57 10° ENE 05:46:28 10° ENE 05:46:59 10° E visible
29 Oct 3.6 17:07:36 10° ESE 17:12:11 35° ENE 17:16:47 10° N visible
29 Oct 3.5 18:46:02 10° S 18:51:03 59° WSW 18:56:07 10° NNW visible
29 Oct 5.8 20:28:44 10° WSW 20:31:12 13° W 20:33:41 10° NW visible
30 Oct 2.9 18:09:09 10° SSE 18:14:14 82° ENE 18:19:22 10° NNW visible
30 Oct 5.2 19:49:51 10° SW 19:53:54 23° W 19:57:57 10° NW visible
31 Oct 5.9 06:09:29 10° NE 06:12:31 16° E 06:15:31 10° ESE visible
31 Oct 3.2 17:32:42 10° SE 17:37:35 49° ENE 17:42:29 10° N visible
31 Oct 4.3 19:12:00 10° SSW 19:16:46 40° W 19:21:34 10° NNW visible
01 Nov 3.8 16:56:40 10° ESE 17:01:05 31° NE 17:05:31 10° N visible
01 Nov 3.3 18:34:45 10° S 18:39:50 69° WSW 18:44:56 10° NNW visible
01 Nov 5.7 20:16:45 10° WSW 20:19:50 16° W 20:22:56 10° NW visible
